Retour au catalogue

THORAD DELTA 1 DEB

ActifSSO
NORAD 8394·DEBRIS·🇺🇸 United States

Lancé Nov 15, 1974 depuis Vandenberg Space Force Base

Loading…

Prochains Passages (prochaines 24 heures)

TLE

FraisSource: Space-Track

Époque: Sep 14, 2026, 00:12 UTC

1 08394U 74089BW  26257.00883116 -.00000008  00000-0  31474-3 0  9992
2 08394 102.0748 270.2831 0174312 145.6550 242.9305 12.20481886950307

Suivez THORAD DELTA 1 DEB en temps réel avec AllMySat

Download on the App Store